[[{"header":{"parameterUnit":"m.s-1","parameterCategory":1,"la1":30.2991,"la2":30.254,"lo1":-89.0895,"lo2":-89.0444,"dy":0.0017,"dx":0.0017,"nx":28,"ny":28,"refTime":"2025-06-16T21:00:00:Z","depth":0,"parameterNumber":2,"parameterNumberName":"U-component_of_WINDS"},"data":[0,0,0,0,0,0,0,0,0,0,0,0,0,0,0,0,0,0,0,0,0,0,0,0,0,0,0,0,0,0,0,0,0,0,0,0,0,0,0,0,0,0,0,0,0,0,0,0,0,0,0,0,0,0,0,0,0,0,0.5199,0.5198,0,0.5092,0.509,0.5089,0.5018,0.5018,0.5017,0.5017,0.4904,0.4902,0.4899,0,0,0,0,0,0,0,0,0,0,0,0,0,0.5339,0.5336,0.5199,0.5198,0.5197,0.5092,0.509,0.5089,0.5018,0.5018,0.5017,0.5016,0.4905,0.4902,0.4899,0,0,0,0,0,0,0,0,0,0,0,0,0,0.5259,0.5336,0.5199,0.5149,0.5143,0.5092,0.509,0.5088,0.5018,0.5018,0.5017,0.5016,0.4906,0.4903,0.4899,0.4889,0,0,0.4887,0.4885,0,0,0,0,0,0,0,0,0.5264,0.5254,0.5157,0.5152,0.5146,0.5068,0.5098,0.5022,0.5018,0.5066,0.5017,0.5016,0.4959,0.4951,0.4932,0.4884,0.4879,0.4887,0.4884,0.4883,0.4882,0,0,0,0,0,0,0,0.5269,0.5258,0.5157,0.5156,0.5149,0.513,0.5118,0.5083,0.5018,0.5061,0.5056,0.5044,0.4956,0.4936,0.4929,0.4878,0.4887,0.4883,0.4881,0.488,0.4812,0.4813,0,0,0,0,0,0,0.5283,0.5263,0.516,0.5153,0.5204,0.5128,0.5114,0.5093,0.5018,0.5006,0.5045,0.5041,0.4943,0.4934,0.4925,0.4906,0.4883,0.4879,0.4877,0.4812,0.4812,0.4813,0,0,0,0,0,0,0.5287,0.5275,0.5164,0.5207,0.5191,0.5126,0.5103,0.5092,0.5072,0.5005,0.4993,0.5037,0.4942,0.493,0.4898,0.4902,0.4878,0.4874,0.4811,0.4812,0.4813,0.4871,0,0,0,0,0,0,0.5291,0.5277,0.5274,0.5207,0.5189,0.5141,0.5103,0.509,0.5066,0.506,0.4995,0.4983,0.4941,0.4904,0.4894,0.4896,0.4871,0.4811,0.4812,0.4812,0.4869,0.4874,0.4878,0,0,0,0,0,0.5296,0.5294,0.5274,0.5262,0.5184,0.5141,0.5131,0.5082,0.5066,0.5062,0.5018,0.4985,0.4903,0.4901,0.489,0.489,0.481,0.4811,0.4812,0.4866,0.4873,0.4878,0,0,0,0,0,0,0.5362,0.5285,0.5261,0.5238,0.5197,0.5129,0.5122,0.5091,0.5053,0.5049,0.4989,0.4975,0.4948,0.4916,0.4916,0.4875,0.4852,0.4851,0.4897,0.4903,0.4908,0.4916,0.4868,0,0,0,0,0,0.5375,0.5347,0.528,0.5266,0.5247,0.5188,0.5168,0.5134,0.5088,0.507,0.5025,0.4981,0.4944,0.4922,0.4885,0.4864,0.4847,0.4858,0.4863,0.4867,0.4867,0.485,0.4853,0.4817,0.4817,0.4817,0,0,0.5399,0.5353,0.534,0.5278,0.5242,0.5214,0.5174,0.5146,0.5123,0.5065,0.5032,0.4997,0.4944,0.4916,0.4902,0.4888,0.4873,0.4869,0.4873,0.4869,0.4851,0.4855,0.4858,0.4817,0.4817,0.4817,0,0,0.5428,0.5392,0.5375,0.534,0.5285,0.5246,0.5242,0.5179,0.5153,0.5118,0.5073,0.5045,0.4985,0.4948,0.4921,0.4934,0.4901,0.4924,0.4949,0.4933,0.4936,0.4938,0.494,0.4942,0.4923,0.4924,0.4924,0,0.5465,0.5422,0.537,0.5344,0.5317,0.5264,0.5245,0.5212,0.5149,0.5131,0.5117,0.5038,0.4999,0.496,0.4963,0.4944,0.4936,0.4931,0.494,0.4941,0.4943,0.4944,0.4946,0.4927,0.4926,0.4926,0.4926,0,0.5468,0.5438,0.5431,0.5371,0.5343,0.5321,0.5265,0.5243,0.521,0.5172,0.5136,0.5086,0.5037,0.5026,0.4994,0.4982,0.4975,0.4951,0.4927,0.495,0.495,0.4951,0.4931,0.493,0.4929,0.4928,0,0,0.5537,0.5448,0.5446,0.5417,0.5352,0.5327,0.5301,0.5253,0.5235,0.5192,0.5167,0.5116,0.5093,0.5063,0.5026,0.5013,0.5023,0.499,0.4988,0.4996,0.5003,0.502,0.5022,0.5001,0.5001,0.5001,0.5007,0,0.5556,0.5508,0.546,0.5428,0.5398,0.5345,0.5322,0.5279,0.5242,0.5209,0.5168,0.5132,0.5105,0.5086,0.507,0.5025,0.5023,0.5024,0.4975,0.4974,0.4989,0.5023,0.5041,0.505,0.5007,0.5007,0.5007,0,0.5571,0.5531,0.5496,0.5432,0.5418,0.5398,0.5349,0.532,0.5268,0.5242,0.5207,0.5168,0.5135,0.5115,0.5068,0.507,0.5047,0.5021,0.502,0.5013,0.4992,0.5015,0.5052,0.5052,0.5007,0.5007,0.5007,0,0.5623,0.556,0.553,0.5507,0.5432,0.5419,0.5387,0.5335,0.5308,0.5265,0.5246,0.52,0.5174,0.5138,0.5086,0.5077,0.5044,0.502,0.502,0.5021,0.5015,0.5016,0.5047,0.5002,0.5002,0.5002,0.5002,0,0.5648,0.5628,0.5552,0.5534,0.5509,0.5453,0.543,0.5393,0.5347,0.5318,0.527,0.5244,0.5178,0.5144,0.5103,0.5069,0.5059,0.5035,0.5024,0.5038,0.5041,0.5022,0.5019,0.5002,0.5002,0.5002,0.5002,0,0.5701,0.565,0.5614,0.5545,0.5527,0.5512,0.5452,0.5431,0.539,0.5355,0.5344,0.5279,0.5236,0.5181,0.5121,0.5094,0.5063,0.5048,0.5081,0.5074,0.5076,0.5076,0.5095,0.5094,0.5052,0.5053,0.5053,0,0.572,0.5704,0.5633,0.5611,0.558,0.5546,0.5518,0.5462,0.5435,0.5373,0.5359,0.5313,0.5272,0.5205,0.5152,0.5105,0.5087,0.5097,0.5079,0.5094,0.5085,0.5086,0.5083,0.5101,0.5102,0.5102,0.5103,0,0.5758,0.5733,0.5696,0.5649,0.5618,0.5578,0.5536,0.552,0.5454,0.5426,0.5382,0.535,0.5288,0.5241,0.5187,0.5151,0.5115,0.5109,0.5105,0.512,0.5139,0.5127,0.5091,0.5108,0.5108,0.5107,0.5107,0.5107,0.5793,0.5775,0.5722,0.5682,0.5644,0.5606,0.5582,0.5538,0.55,0.5446,0.5414,0.537,0.5316,0.5239,0.5205,0.5168,0.5155,0.5151,0.515,0.5149,0.5153,0.5146,0.5158,0.5158,0.5157,0.5157,0.5157,0,0.5827,0.579,0.5754,0.5696,0.5664,0.5633,0.5585,0.5559,0.5521,0.5474,0.5435,0.5383,0.5336,0.5279,0.5228,0.521,0.5192,0.5198,0.5199,0.519,0.5169,0.5176,0.5214,0.5214,0.5214,0.5214,0.5214,0.5214,0.5841,0.5809,0.5777,0.5724,0.5686,0.5643,0.5618,0.5581,0.5543,0.5487,0.5448,0.5411,0.5359,0.5304,0.5259,0.5243,0.5226,0.5238,0.5217,0.5197,0.5192,0.5188,0.5194,0.5235,0.5235,0.5241,0.5241,0.5241]},{"header":{"parameterUnit":"m.s-1","parameterCategory":1,"la1":30.2991,"la2":30.254,"lo1":-89.0895,"lo2":-89.0444,"dy":0.0017,"dx":0.0017,"nx":28,"ny":28,"refTime":"2025-06-16T21:00:00:Z","depth":0,"parameterNumber":3,"parameterNumberName":"V-component_of_WINDS"},"data":[0,0,0,0,0,0,0,0,0,0,0,0,0,0,0,0,0,0,0,0,0,0,0,0,0,0,0,0,0,0,0,0,0,0,0,0,0,0,0,0,0,0,0,0,0,0,0,0,0,0,0,0,0,0,0,0,0,0,4.2691,4.2692,0,4.2778,4.2779,4.278,4.2817,4.2817,4.2817,4.2817,4.2897,4.2899,4.2902,0,0,0,0,0,0,0,0,0,0,0,0,0,4.2548,4.2551,4.2691,4.2692,4.2693,4.2778,4.2779,4.278,4.2817,4.2817,4.2817,4.2816,4.2896,4.2899,4.2902,0,0,0,0,0,0,0,0,0,0,0,0,0,4.262,4.2552,4.269,4.2722,4.2725,4.2778,4.2779,4.2781,4.2817,4.2817,4.2817,4.2816,4.2896,4.2899,4.2902,4.2927,0,0,4.2913,4.2914,0,0,0,0,0,0,0,0,4.2616,4.2625,4.2716,4.272,4.2724,4.2787,4.2759,4.2829,4.2817,4.2782,4.2817,4.2816,4.286,4.2866,4.2883,4.2931,4.2935,4.2913,4.2915,4.2916,4.2917,0,0,0,0,0,0,0,4.2611,4.2622,4.2725,4.2717,4.2722,4.2729,4.2739,4.2772,4.2821,4.2785,4.2788,4.2798,4.2862,4.2879,4.2885,4.2936,4.2913,4.2916,4.2918,4.2919,4.301,4.3011,0,0,0,0,0,0,4.2602,4.2617,4.2722,4.2728,4.2669,4.2732,4.2743,4.2766,4.2821,4.2829,4.2798,4.28,4.2874,4.2881,4.2888,4.2922,4.2916,4.292,4.2922,4.301,4.301,4.3011,0,0,0,0,0,0,4.2599,4.2611,4.2719,4.2673,4.2688,4.2734,4.2761,4.2768,4.2786,4.2831,4.2839,4.2808,4.2874,4.2883,4.2918,4.2925,4.2921,4.2924,4.3009,4.301,4.3011,4.2989,0,0,0,0,0,0,4.2595,4.261,4.2621,4.2674,4.269,4.2749,4.2761,4.277,4.2793,4.2795,4.2842,4.2849,4.2874,4.2913,4.2922,4.293,4.2927,4.3009,4.301,4.301,4.2989,4.2989,4.2989,0,0,0,0,0,4.2589,4.2609,4.2622,4.2634,4.2706,4.275,4.2759,4.279,4.2793,4.2804,4.2833,4.2848,4.2923,4.2916,4.2926,4.2935,4.3009,4.301,4.301,4.299,4.2989,4.2989,0,0,0,0,0,0,4.2552,4.2617,4.2631,4.2669,4.2704,4.2756,4.2771,4.2788,4.2821,4.2821,4.2856,4.2866,4.2899,4.2921,4.2912,4.2963,4.2967,4.297,4.2948,4.2948,4.2947,4.2941,4.293,0,0,0,0,0,4.255,4.2583,4.2636,4.2664,4.2682,4.2723,4.2743,4.2765,4.2801,4.2816,4.2847,4.288,4.2911,4.2931,4.2962,4.2993,4.3004,4.3005,4.3004,4.3003,4.3005,4.3024,4.3025,4.3013,4.3013,4.3013,0,0,4.2542,4.2581,4.2599,4.2658,4.2688,4.2719,4.2735,4.2767,4.279,4.2819,4.2856,4.288,4.2918,4.2952,4.2969,4.2971,4.3011,4.3005,4.3004,4.3006,4.3025,4.3026,4.3027,4.3014,4.3014,4.3014,0,0,4.2545,4.2579,4.2607,4.2638,4.2684,4.2712,4.2719,4.2769,4.2787,4.2825,4.2848,4.2875,4.2928,4.2955,4.2976,4.2992,4.3006,4.3001,4.2998,4.3016,4.3017,4.3018,4.3024,4.3026,4.3003,4.3003,4.3003,0,4.2529,4.2581,4.2618,4.2651,4.2675,4.2707,4.2735,4.2762,4.2814,4.283,4.2833,4.2902,4.293,4.2971,4.2976,4.2991,4.2999,4.2995,4.3014,4.3016,4.3017,4.3023,4.3025,4.3002,4.3002,4.3002,4.3002,0,4.2559,4.2594,4.2611,4.2666,4.2692,4.2722,4.2762,4.2784,4.2804,4.2831,4.2868,4.2904,4.2944,4.2955,4.2973,4.2999,4.3,4.3008,4.3012,4.3017,4.3023,4.3025,4.3,4.3001,4.3001,4.3001,0,0,4.2539,4.2617,4.2623,4.2649,4.2703,4.273,4.2761,4.2803,4.2821,4.2857,4.2883,4.2928,4.2938,4.2961,4.2982,4.2998,4.301,4.3005,4.3007,4.3005,4.3041,4.3034,4.3036,4.302,4.3021,4.3021,4.3038,0,4.255,4.261,4.2646,4.269,4.2723,4.2755,4.2782,4.2817,4.2844,4.2873,4.2901,4.2934,4.2943,4.2958,4.2976,4.3005,4.3017,4.3004,4.3043,4.3044,4.3032,4.3039,4.3031,4.3045,4.304,4.3041,4.3041,0,4.2569,4.2609,4.2658,4.2712,4.2727,4.275,4.2793,4.2822,4.2862,4.288,4.2908,4.2931,4.2963,4.2965,4.301,4.3,4.3018,4.3035,4.3036,4.304,4.3042,4.3043,4.305,4.3052,4.3045,4.3045,4.3044,0,4.255,4.2615,4.2654,4.2675,4.2738,4.2754,4.278,4.2821,4.2845,4.2881,4.2897,4.2935,4.2955,4.2983,4.3015,4.3014,4.3056,4.3061,4.307,4.307,4.3077,4.3076,4.3086,4.3089,4.3089,4.3089,4.3089,0,4.2558,4.2587,4.2647,4.267,4.2703,4.2743,4.2773,4.2802,4.2839,4.2866,4.2895,4.292,4.2961,4.299,4.3015,4.3048,4.3056,4.3071,4.3077,4.3068,4.3066,4.3079,4.3079,4.309,4.3089,4.3089,4.3089,0,4.2542,4.2583,4.2627,4.2685,4.27,4.2722,4.277,4.2793,4.2822,4.2857,4.2867,4.2912,4.2949,4.2984,4.3031,4.3048,4.3081,4.3089,4.3068,4.3071,4.3079,4.3077,4.3097,4.3102,4.3102,4.3102,4.3102,0,4.2543,4.2567,4.2629,4.2652,4.2679,4.2714,4.274,4.278,4.2805,4.2855,4.2871,4.2911,4.2945,4.3001,4.3036,4.3073,4.3082,4.3087,4.3087,4.3078,4.3082,4.308,4.3082,4.3085,4.3085,4.3085,4.3085,0,4.2542,4.2563,4.2601,4.2646,4.2677,4.2714,4.2751,4.2767,4.2814,4.284,4.2881,4.2907,4.2958,4.2996,4.3038,4.3062,4.3081,4.3085,4.3089,4.308,4.3067,4.3074,4.3065,4.3084,4.3084,4.3084,4.3084,4.3084,4.2535,4.2558,4.2607,4.2648,4.2681,4.2716,4.2741,4.2776,4.2811,4.2858,4.2879,4.2919,4.2959,4.3018,4.3042,4.3073,4.3077,4.3083,4.3084,4.3085,4.3083,4.3063,4.308,4.308,4.308,4.308,4.308,0,4.2536,4.2569,4.2607,4.2661,4.2693,4.2713,4.2755,4.278,4.2816,4.2854,4.2889,4.2934,4.2972,4.3012,4.3052,4.3068,4.3078,4.3077,4.3076,4.3081,4.3077,4.307,4.3069,4.3069,4.3069,4.3069,4.3069,4.3069,4.254,4.258,4.2607,4.2664,4.2696,4.2739,4.2762,4.2794,4.2825,4.2876,4.2909,4.2936,4.2975,4.3018,4.3053,4.3064,4.3076,4.3074,4.3086,4.3081,4.3081,4.3082,4.3075,4.3076,4.3076,4.3088,4.3088,4.3088]}]]